{"data":{"norad_id":63592,"intl_designator":"2025-076Z","name":"STARLINK-33666","alt_names":[],"object_type":"PAYLOAD","status":"ACTIVE","operator":null,"country":"US","launch_date":"2025-04-14","launch_site_code":"AFETR","launch_vehicle":null,"mission":null,"orbit_class":"UNKNOWN","rcs_meters":null,"size_class":null,"mass_kg":null,"dimensions":null,"purposes":["comms"],"wikipedia_slug":null,"has_3d_model":false,"image_url":null,"decayed_at":null,"tle_current":{"epoch":"2026-09-20T09:05:30.581952Z","epoch_age_seconds":163077,"freshness":"FRESH","line1":"1 63592U 25076Z   26263.37882618  .00008046  00000+0  30151-3 0  9997","line2":"2 63592  43.0040 302.3617 0002631 290.5484  69.5085 15.27587846 81605","mean_motion":15.27587846,"eccentricity":0.0002631,"inclination_deg":43.004,"raan_deg":302.3617,"arg_perigee_deg":290.5484,"mean_anomaly_deg":69.5085,"bstar":0.00030151,"rev_number":8160,"period_min":94.266264540573,"perigee_km":481.22043051294,"apogee_km":484.83077427432,"semimajor_km":6861.1626023936,"source":"CELESTRAK","updated_at":"2026-09-21T09:00:35.049462Z"}}}